User: anonymous   Login
Location: Unspecified
(0.0000°N, 0.0000°E)
Time: 12:58:24
(UTC+00:00)
Language:

COSMOS 2496 - Orbit

View from above orbital plane
View from above orbital plane
View from above satellite
View from above satellite

Ground track
Ground track

The orbit data is extracted from the following two-line orbital elements,

1 39761U 14028A   17352.17470166  .00000014  00000-0  27234-4 0  9998
2 39761  82.4467 252.4004 0020326   0.3876 359.7214 12.42872379162109
Epoch (UTC): 18 December 2017 04:11:34
Eccentricity: 0.0020326
inclination: 82.4467°
perigee height: 1478 km
apogee height: 1510 km
right ascension of ascending node: 252.4004°
argument of perigee: 0.3876°
revolutions per day: 12.42872379
mean anomaly at epoch: 359.7214°
orbit number at epoch: 16210

The dashed part of the orbit path shows where the satellite is in the earth's shadow,  

DLR